Flag for United Kingdom Weather past 2 weeks in London, England, United Kingdom

Now
54 °F

Sunny.


Feels Like: 52 °F
Forecast: 49 / 70 °F
Wind: 7 mph from Northwest

Location: Northolt

Current Time: Jul 30, 2015 at 8:02:27 AM

Latest Report: Jul 30, 2015 at 6:50 AM


Visibility: 10 mi

Pressure: 30.04 "Hg

Humidity: 77%

Dew point: 46 °F

Location of LondonLocation

Historic Weather in London — Graph

°F

London temperature yesterday

Maximum temperature yesterday: 66 °F (at 2:50 PM)
Minimum temperature yesterday: 48 °F (at 4:50 AM)
Average temperature yesterday: 57 °F

Past Weeks' High & Low Weather Summary

 TemperatureHumidityPressure
High77 °F (Jul 16, 3:50 PM)100% (Jul 17, 3:50 AM)30.09 "Hg (Jul 17, 3:50 AM)
Low48 °F (Jul 29, 4:50 AM)19% (Jul 19, 6:50 PM)29.42 "Hg (Jul 26, 7:50 PM)
Average62 °F71%29.86 "Hg
* Reported Jul 15 6:50 AM — Jul 30 6:50 AM, London, Weather by CustomWeather, © 2015

Note: Actual official high and low records may vary slightly from our data, if they occured in-between our weather recording intervals... More about our weather records

Advertising

London weather history for previous 24 hours

 ConditionsComfort  
Time TempWeatherWind HumidityBarometerVisibility
6:50 AM
Thu, Jul 30
54 °FSunny.7 mph77%30.04 "Hg10 mi
5:50 AM52 °FOvercast.7 mph82%30.01 "HgN/A
4:50 AM52 °FPassing clouds.5 mph82%30.01 "HgN/A
3:50 AM52 °FPassing clouds.6 mph82%30.01 "HgN/A
2:50 AM54 °FPassing clouds.6 mph82%30.01 "HgN/A
1:50 AM54 °FPassing clouds.6 mph82%29.98 "HgN/A
12:50 AM55 °FPartly cloudy.9 mph77%29.98 "HgN/A
11:50 PM
Wed, Jul 29
57 °FOvercast.8 mph72%29.98 "HgN/A
10:50 PM57 °FClear.6 mph77%29.98 "Hg10 mi
9:50 PM57 °FSunny.8 mph72%29.95 "Hg10 mi
8:50 PM59 °FPartly sunny.7 mph68%29.95 "HgN/A
7:50 PM61 °FPartly sunny.9 mph59%29.92 "HgN/A
6:50 PM61 °FPartly sunny.9 mph72%29.92 "HgN/A
5:50 PM61 °FPartly sunny.13 mph72%29.89 "HgN/A
4:50 PM59 °FSprinkles. Broken clouds.15 mph72%29.89 "HgN/A
3:50 PM66 °FBroken clouds.12 mph52%29.89 "HgN/A
2:50 PM66 °FBroken clouds.10 mph49%29.86 "HgN/A
1:50 PM63 °FBroken clouds.9 mph56%29.86 "HgN/A
11:50 AM61 °FBroken clouds.14 mph55%29.83 "HgN/A
10:50 AM63 °FScattered clouds.15 mph56%29.83 "HgN/A
9:50 AM59 °FScattered clouds.13 mph63%29.83 "HgN/A
8:50 AM59 °FScattered clouds.12 mph68%29.83 "HgN/A
Weather by CustomWeather, © 2015

See weather overviewHow to use our weather pages